EZY97TU LOWI-EGPH

Flight info

Callsign EZY97TU
Flight time N/A
Altitude 38000
Route KOGOL M726 KEMES DCT GASKA DCT MAPOX DCT BIGGE DCT TOPPA DCT AGPED
Aircraft A20N/M-SDE2E3FGHIJ1RWXYZ/LB1

Departure

Time 2026-05-04 13:44
Airport Innsbruck Airport (LOWI)

Arrival

Time N/A
Airport Edinburgh Airport (EGPH)
Time Latitude Longitude Altitude Speed Heading
2026-05-04 13:14 47.25824 11.35114 1901 ft 0 kts 174°
2026-05-04 13:39 47.25848 11.35108 1889 ft 4 kts 159°
2026-05-04 13:39 47.25870 11.35088 1887 ft 4 kts 118°
2026-05-04 13:40 47.25874 11.35064 1887 ft 1 kts 80°
2026-05-04 13:40 47.25873 11.35060 1887 ft 0 kts 80°
2026-05-04 13:42 47.25879 11.35104 1887 ft 7 kts 80°
2026-05-04 13:42 47.25890 11.35205 1900 ft 13 kts 81°
2026-05-04 13:42 47.25951 11.35285 1897 ft 14 kts 341°
2026-05-04 13:42 47.26058 11.35250 1896 ft 19 kts 349°
2026-05-04 13:43 47.26120 11.35341 1897 ft 14 kts 84°
2026-05-04 13:43 47.26141 11.35519 1896 ft 21 kts 82°
2026-05-04 13:43 47.26122 11.35672 1901 ft 12 kts 57°
2026-05-04 13:43 47.26152 11.35667 1897 ft 5 kts 281°
2026-05-04 13:44 47.26149 11.35599 1897 ft 11 kts 261°
2026-05-04 13:44 47.26100 11.35147 1900 ft 86 kts 261°
2026-05-04 13:44 47.25969 11.33925 1911 ft 154 kts 261°
2026-05-04 13:44 47.25807 11.32263 2509 ft 162 kts 259°
2026-05-04 13:45 47.25645 11.30627 3455 ft 161 kts 258°
2026-05-04 13:45 47.25469 11.28979 4330 ft 170 kts 258°
2026-05-04 13:45 47.25361 11.27135 4868 ft 194 kts 272°
2026-05-04 13:45 47.25685 11.25079 5264 ft 219 kts 294°
2026-05-04 13:46 47.26342 11.22921 5570 ft 244 kts 295°
2026-05-04 13:46 47.27042 11.20647 6563 ft 237 kts 291°
2026-05-04 13:46 47.27695 11.18484 7770 ft 230 kts 291°
2026-05-04 13:46 47.28348 11.16287 8601 ft 238 kts 290°
2026-05-04 13:47 47.29006 11.14027 9468 ft 241 kts 290°
2026-05-04 13:47 47.29684 11.11693 10123 ft 256 kts 290°
2026-05-04 13:47 47.29913 11.10893 10244 ft 264 kts 289°
2026-05-04 13:48 47.30429 11.08113 10657 ft 284 kts 275°
2026-05-04 13:48 47.30474 11.05134 11057 ft 303 kts 264°
2026-05-04 13:48 47.30331 11.01909 11355 ft 325 kts 264°
2026-05-04 13:48 47.30197 10.98537 11946 ft 336 kts 264°
2026-05-04 13:49 47.30068 10.95067 12832 ft 338 kts 264°
2026-05-04 13:49 47.29938 10.91596 13756 ft 340 kts 264°
2026-05-04 13:49 47.29828 10.88095 14442 ft 346 kts 269°
2026-05-04 13:49 47.30298 10.84566 15124 ft 356 kts 288°
2026-05-04 13:50 47.31560 10.81418 15685 ft 371 kts 308°
2026-05-04 13:50 47.33484 10.78826 16408 ft 378 kts 323°
2026-05-04 13:50 47.35868 10.77143 17150 ft 386 kts 342°
2026-05-04 13:50 47.38548 10.76616 17809 ft 395 kts
2026-05-04 13:51 47.41259 10.77339 18509 ft 398 kts 19°
2026-05-04 13:51 47.43728 10.79222 19038 ft 403 kts 37°
2026-05-04 13:51 47.45734 10.82139 19641 ft 405 kts 54°
2026-05-04 13:51 47.47087 10.85792 20182 ft 408 kts 72°
2026-05-04 13:52 47.47997 10.94037 21257 ft 412 kts 83°
2026-05-04 13:52 47.48610 10.98195 21869 ft 416 kts 75°
2026-05-04 13:52 47.49570 11.02269 22430 ft 421 kts 69°
2026-05-04 13:53 47.50757 11.06242 22995 ft 425 kts 65°
2026-05-04 13:53 47.52063 11.10188 23546 ft 429 kts 64°
2026-05-04 13:53 47.53416 11.14134 24019 ft 432 kts 64°
2026-05-04 13:54 47.56145 11.22062 24952 ft 438 kts 64°
2026-05-04 13:54 47.57523 11.26102 25405 ft 439 kts 64°
2026-05-04 13:54 47.60787 11.33788 26212 ft 446 kts 45°
2026-05-04 13:55 47.63181 11.36722 26633 ft 448 kts 32°
2026-05-04 13:55 47.67965 11.39602 27280 ft 449 kts
2026-05-04 13:55 47.72099 11.39883 27779 ft 448 kts 351°
2026-05-04 13:56 47.74184 11.39424 28026 ft 448 kts 347°
2026-05-04 13:56 47.77260 11.38566 28387 ft 451 kts 347°
2026-05-04 13:56 47.83522 11.37173 29113 ft 457 kts 351°
2026-05-04 13:57 47.86701 11.36664 29463 ft 460 kts 352°